EW2690 Weather Reports


time (UTC)temp
F
wind
direction
speed
knots
gust
knots
rain 1hr
in
rain 24hr
in
rain mn
in
humidity
%
barometer
mb
20260505080355 68 248 8.7 18.2 0.00 0.02 0.00 61 1012.2
20260505080030 68 232 8.7 13.0 0.00 0.02 0.00 61 1012.3
20260505073049 69 196 7.8 19.1 0.00 0.02 0.00 60 1012.0
20260505070424 68 221 9.6 24.3 0.00 0.02 0.00 63 1012.0
20260505070321 68 221 9.6 24.3 0.00 0.02 0.00 63 1012.0
20260505070104 68 229 7.0 24.3 0.00 0.02 0.00 63 1012.0
20260505063046 66 211 7.0 16.5 0.00 0.02 0.00 67 1012.3
20260505060404 66 203 5.2 11.3 0.00 0.02 0.00 68 1012.8
20260505060018 66 221 5.2 11.3 0.00 0.02 0.00 68 1012.8
20260505053013 67 201 7.8 16.5 0.00 0.02 0.00 66 1013.1
20260505050349 67 236 8.7 14.8 0.00 0.02 0.00 66 1013.5
20260505040341 67 226 5.2 13.0 0.00 0.02 0.00 66 1013.4
20260505040048 67 208 6.1 13.0 0.00 0.02 0.00 66 1013.5
20260505033047 67 220 7.0 13.9 0.00 0.02 0.02 66 1013.6
20260505030325 67 213 7.0 16.5 0.00 0.02 0.02 65 1013.7
20260505030017 67 164 4.3 11.3 0.00 0.02 0.02 64 1013.5
20260505023047 68 213 7.0 15.6 0.00 0.02 0.02 62 1013.9
20260505020325 67 189 3.5 9.6 0.00 0.02 0.02 63 1013.7
20260505020108 67 306 7.0 9.6 0.00 0.02 0.02 63 1013.6
20260505013024 67 233 2.6 8.7 0.00 0.02 0.02 64 1013.5
20260505010317 68 215 4.3 8.7 0.00 0.02 0.02 64 1013.1
20260505010040 68 223 5.2 8.7 0.00 0.02 0.02 64 1013.1
20260505003017 68 230 2.6 9.6 0.00 0.02 0.02 66 1012.8
20260505000402 66 228 1.7 6.1 0.00 0.02 0.02 75 1012.7
20260505000053 65 142 2.6 4.3 0.00 0.02 0.02 76 1012.7
20260504233035 65 156 1.7 2.6 0.02 0.02 0.02 79 1012.8
20260504230312 68 186 3.5 15.6 0.02 0.02 0.02 71 1013.0
20260504230052 68 203 3.5 15.6 0.02 0.02 0.02 69 1013.0
20260504223135 72 236 7.0 13.9 0.00 0.00 0.00 52 1013.1
20260504223052 72 236 7.0 13.9 0.00 0.00 0.00 52 1013.1
20260504220332 73 167 5.2 10.4 0.00 0.00 0.00 49 1013.2
20260504220131 72 179 5.2 12.2 0.00 0.00 0.00 49 1013.3
20260504213032 75 275 7.0 12.2 0.00 0.00 0.00 46 1013.4
20260504210326 74 223 8.7 15.6 0.00 0.00 0.00 44 1013.5
20260504210030 74 151 7.8 15.6 0.00 0.00 0.00 44 1013.5
20260504203027 74 174 6.1 18.2 0.00 0.00 0.00 43 1013.6
20260504200320 74 185 6.1 19.1 0.00 0.00 0.00 44 1013.9
20260504200123 74 223 7.0 19.1 0.00 0.00 0.00 42 1014.0
20260504193016 74 148 6.1 15.6 0.00 0.00 0.00 37 1014.5
20260504190340 74 278 6.1 14.8 0.00 0.00 0.00 36 1014.7
20260504190118 74 271 6.1 14.8 0.00 0.00 0.00 40 1014.8
20260504183100 74 205 7.0 12.2 0.00 0.00 0.00 38 1014.9
20260504180352 73 254 6.1 15.6 0.00 0.00 0.00 44 1015.4
20260504180034 73 213 7.0 15.6 0.00 0.00 0.00 42 1015.3
20260504173030 72 285 7.8 15.6 0.00 0.00 0.00 41 1015.5
20260504170405 71 236 7.0 15.6 0.00 0.00 0.00 44 1016.0
20260504160334 69 213 7.0 14.8 0.00 0.00 0.00 50 1016.4
20260504150340 66 257 4.3 10.4 0.00 0.00 0.00 52 1017.1
20260504140431 63 233 2.6 13.0 0.00 0.00 0.00 58 1017.3
20260504130338 59 276 4.3 13.0 0.00 0.00 0.00 60 1018.0
20260504110332 53 215 7.0 11.3 0.00 0.00 0.00 64 1017.6
20260504100328 53 214 5.2 11.3 0.00 0.00 0.00 62 1017.5